N9WFD Weather Reports


Display with metric or nautical units.
time (UTC)temp
F
wind
direction
speed
MPH
gust
MPH
rain 1hr
in
rain 24hr
in
rain mn
in
humidity
%
barometer
mb
20260505014508 67 317 6.0 12.0 0.00 0.00 0.00 63 997.0
20260505013003 67 325 5.0 16.0 0.00 0.00 0.00 62 996.9
20260505010112 69 4 5.0 10.0 0.00 0.00 0.00 52 996.7
20260505004631 71 317 4.0 10.0 0.00 0.00 0.00 47 996.1
20260505003101 71 337 3.0 10.0 0.00 0.00 0.00 45 995.4
20260505001558 72 14 9.0 16.0 0.00 0.00 0.00 43 995.3
20260505000110 73 21 8.0 17.0 0.00 0.00 0.00 41 995.3
20260504234554 74 331 5.0 11.0 0.00 0.00 0.00 39 995.3
20260504233053 74 33 6.0 16.0 0.00 0.00 0.00 38 995.4
20260504231619 73 45 7.0 11.0 0.00 0.00 0.00 41 995.7
20260504230047 71 323 7.0 17.0 0.00 0.00 0.00 46 995.9
20260504224546 71 2 7.0 14.0 0.00 0.00 0.00 46 996.4
20260504223047 74 349 13.0 29.0 0.00 0.00 0.00 38 996.3
20260504221612 77 24 7.0 13.0 0.00 0.00 0.00 34 996.1
20260504220013 78 304 9.0 19.0 0.00 0.00 0.00 31 996.1
20260504214511 78 77 8.0 15.0 0.00 0.00 0.00 31 996.2
20260504213019 79 331 10.0 19.0 0.00 0.00 0.00 30 996.3
20260504211506 79 351 10.0 18.0 0.00 0.00 0.00 29 996.5
20260504210002 79 6 9.0 18.0 0.00 0.00 0.00 29 996.8
20260504204501 79 26 12.0 22.0 0.00 0.00 0.00 28 996.8
20260504203057 79 8 10.0 27.0 0.00 0.00 0.00 27 997.0
20260504201555 78 20 6.0 26.0 0.00 0.00 0.00 29 997.1
20260504200052 78 2 9.0 18.0 0.00 0.00 0.00 29 997.4
20260504194554 78 341 13.0 21.0 0.00 0.00 0.00 28 997.6
20260504193047 77 4 12.0 20.0 0.00 0.00 0.00 28 998.1
20260504191606 77 33 11.0 20.0 0.00 0.00 0.00 30 998.1
20260504190041 77 42 14.0 25.0 0.00 0.00 0.00 31 998.2
20260504184549 76 343 14.0 23.0 0.00 0.00 0.00 31 998.1
20260504183035 75 331 12.0 23.0 0.00 0.00 0.00 30 998.3
20260504181533 75 25 12.0 24.0 0.00 0.00 0.00 31 998.3
20260504180033 74 4 11.0 21.0 0.00 0.00 0.00 32 998.4
20260504174525 74 5 10.0 22.0 0.00 0.00 0.00 32 998.6
20260504173019 74 355 11.0 16.0 0.00 0.00 0.00 34 998.9
20260504171519 73 48 10.0 25.0 0.00 0.00 0.00 36 999.3
20260504081530 51 339 0.0 2.0 0.00 0.00 0.00 74 1002.5
20260504050012 59 343 4.0 8.0 0.00 0.00 0.00 62 1004.4
20260504044508 59 331 5.0 9.0 0.00 0.00 0.00 61 1004.3
20260504043010 60 327 4.0 9.0 0.00 0.00 0.00 60 1004.3
20260504041505 60 350 3.0 8.0 0.00 0.00 0.00 60 1004.3
20260504040007 60 314 3.0 6.0 0.00 0.00 0.00 59 1004.4
20260504034507 61 294 3.0 8.0 0.00 0.00 0.00 59 1004.4
20260504033004 61 303 4.0 8.0 0.00 0.00 0.00 58 1004.5
20260504031533 61 330 4.0 8.0 0.00 0.00 0.00 58 1004.6
20260504030033 61 324 3.0 5.0 0.00 0.00 0.00 58 1004.7
20260504024507 62 319 2.0 4.0 0.00 0.00 0.00 56 1004.8
20260504023002 62 333 3.0 6.0 0.00 0.00 0.00 55 1004.8
20260504021608 62 323 2.0 6.0 0.00 0.00 0.00 54 1004.6
20260504020059 63 323 3.0 6.0 0.00 0.00 0.00 53 1004.6